CAPE
0 0 0 0 0 0 0 0 0 0 0 0 0 0 0 0 0 0 4 2 5 1 4 2 0 4 2 1 3 0 6 13 2 598 544 948 1010 788 832 740 857 1120 1321 1106 1052 792 629 651 525 692 792 722 955 1479 1582 1721 1570 1909 1936 1812 2212 2106 2045 2268 2405 2278 1738 1328 1880 1936 1217 1508 1476 2038 1955 1672 1149 1286 996 1819 2437 3780 3666 3880 3692 3699
0 0 0 0 0 0 0 0 0 0 0 0 0 0 0 0 0 0 3 3 6 0 2 1 0 3 2 2 5 3 0 0 0 0 1312 867 1030 889 970 1023 774 1140 1240 1369 1284 1049 838 731 612 567 1150 1163 1070 1631 1685 1591 1530 1886 1640 1703 1954 2147 2023 2169 1977 2072 2002 1679 1620 1693 1503 1018 1112 1767 1909 1693 1554 873 1331 3146 3232 3485 3374 3709 3774 3654
0 0 0 0 0 0 0 0 0 0 0 0 0 0 0 0 0 0 0 5 4 0 2 2 3 1 0 2 9 3 5 2 0 1 0 1174 1364 1402 896 788 1103 1336 1121 900 956 1070 888 732 866 660 961 956 959 1266 1295 1835 1825 2029 2078 1789 2061 2087 1953 2051 1926 2098 1994 1902 1722 1524 1537 1388 1049 1439 1517 1233 1402 1754 1309 2519 3121 3170 3563 3785 3696 3615
0 0 0 0 0 0 0 0 0 0 0 0 0 0 0 0 0 0 0 2 0 1 2 0 1 2 0 3 3 7 10 15 10 4 3 789 949 911 968 887 884 1260 1072 941 1199 1045 831 848 990 1037 1378 1665 1149 1755 1540 1614 2064 1980 2443 2120 2343 2252 1868 2143 2127 2099 2035 1972 2225 1987 1990 1480 1385 1496 1538 1838 2203 2162 1657 1537 2770 3527 3679 3597 3422 3248
0 0 0 0 0 0 0 0 0 0 0 0 0 0 0 0 0 0 1 1 5 8 0 2 3 2 1 1 2 3 10 6 9 0 2 683 362 1090 1082 950 991 825 1139 1241 1151 1164 925 936 988 1511 1794 1312 1237 1582 1618 1702 1719 1677 2366 2469 2488 2569 1925 2210 2124 2105 2061 2192 2191 2205 2201 2092 2277 2662 1895 1849 2046 2179 2206 1694 2194 2973 3488 3528 3194 3293
0 0 0 0 0 0 0 0 0 0 0 0 0 0 0 0 0 0 0 0 1 4 1 8 2 2 3 0 1 5 6 27 68 40 10 54 836 825 811 1077 1009 897 1070 1362 1353 1093 992 1322 1458 1694 1993 1540 1478 1890 2132 1830 1937 1992 2509 2618 2628 2740 2250 2191 2192 2061 2111 2081 2123 2199 2217 2264 2048 2703 2400 2127 2058 1859 1893 1080 1150 2512 2872 3119 3170 3414
0 0 0 0 0 0 0 0 0 0 0 0 0 0 0 0 0 0 0 0 0 10 6 0 2 0 2 1 7 2 5 3 1 59 28 237 810 689 826 794 1028 841 1090 1261 1302 1531 1540 1343 1406 1652 1984 1965 1716 1692 1976 2116 2402 2642 2626 2871 2713 2818 2465 2379 2325 2256 2356 2268 2369 2412 2191 2272 2163 2362 2583 2674 2088 2042 2210 1785 2097 2972 3160 3375 3194 2902
0 0 0 0 0 0 0 0 0 0 0 0 0 0 0 0 0 0 0 0 0 0 1 2 0 3 7 7 2 0 1 2 5 22 53 12 688 808 739 816 858 943 1318 1122 1774 1782 1643 1696 1470 1670 2092 1841 1907 1857 1972 2135 2503 2784 2960 2986 2854 2902 2745 2505 2506 2373 2467 2417 2528 2564 2277 2343 2476 2108 2712 2882 2842 2814 2888 2379 2030 2787 3120 3413 3223 2918
0 0 0 0 0 0 0 0 0 0 0 0 0 0 0 0 0 0 0 0 0 0 0 0 2 8 0 0 0 0 0 1 1 10 73 206 431 751 883 931 1119 1259 1325 1393 1520 1740 1896 1650 1472 1724 2181 2206 2038 2023 2168 2716 2859 3108 3136 3227 3061 3016 2942 2769 2869 2395 2634 2727 2660 2684 2512 2674 2620 2512 2729 2943 2969 2926 3108 2987 2614 2880 3090 3549 3473 3248
0 0 0 0 0 0 0 0 0 0 0 0 0 0 0 0 0 0 0 0 0 0 0 0 0 2 2 0 0 0 0 0 0 0 3 61 853 304 656 1260 1444 1136 1418 1656 1512 1502 1638 1545 1333 1379 2064 2192 1806 2160 2802 2713 2946 2970 3237 3422 3197 3104 2964 2998 3078 2627 2802 2958 2884 2779 2692 2811 2899 2826 2771 2794 3067 3196 3345 3305 3222 2973 3484 3546 3602 3335
0 0 0 0 0 0 0 0 0 0 0 0 0 0 0 0 0 0 0 0 0 0 0 0 0 0 0 0 0 0 0 0 6 14 4 60 454 900 371 568 747 674 966 1342 1663 1891 1922 1730 1673 1491 1914 2103 1973 2690 2892 2643 2822 2770 3127 3560 3336 3176 3031 2969 3211 2844 2972 3073 2962 2925 2915 2905 2964 3122 3096 2985 3357 3470 3546 3433 3403 3064 3847 3554 3520 3163
0 0 0 0 0 0 0 0 0 0 0 0 0 0 0 0 0 0 0 0 0 0 0 0 0 0 0 0 0 0 0 0 0 0 4 6 17 5 1048 456 698 808 873 856 1073 1166 1704 1630 1476 1736 2203 2176 2140 2647 2682 2696 2865 3351 3400 3550 3389 3454 3190 2992 3248 3062 2980 2925 3069 2957 3040 2942 3081 3164 3007 3061 3193 3452 3398 3425 3365 3604 3600 3819 3906 3900
0 0 0 0 0 0 0 0 0 0 0 0 0 0 0 0 0 0 0 0 0 0 0 0 0 0 0 0 0 0 0 0 0 0 2 1 69 125 53 776 560 605 905 834 1016 1560 1636 1396 1104 1574 1949 2086 2352 2923 3216 3018 2747 3172 3634 3734 3564 3535 3419 3093 3124 3205 3152 3042 2928 2934 3029 3067 3226 3408 3170 3007 2987 3512 3433 3393 3353 3989 3825 3908 3992 4066
0 0 0 0 0 0 0 0 0 0 0 0 0 0 0 0 0 0 0 0 0 0 0 0 0 0 0 0 0 0 0 0 0 0 0 0 77 216 312 476 609 671 735 802 1035 882 1181 1234 1475 1794 1853 2603 3048 3203 3124 2934 3150 3568 3464 3839 3697 3729 3622 3336 3092 3298 3366 3202 3065 2994 2969 3150 3359 3503 3383 3072 2898 3329 3764 3817 3579 3426 3848 4046 3800 3783
0 0 0 0 0 0 0 0 0 0 0 0 0 0 0 0 0 0 0 0 0 0 0 0 0 0 0 0 0 0 0 0 0 0 0 17 73 544 432 310 72 899 818 852 1225 1518 1428 1294 1294 1420 2285 3213 3287 2991 2626 2984 3268 3678 3847 4027 3978 3822 3696 3610 3377 3396 3438 3332 3205 3000 2928 3119 3399 3595 3516 3174 2916 2905 3689 3967 3833 3764 3552 3746 3689 3628
0 0 0 0 0 0 0 0 0 0 0 0 0 0 0 0 0 0 0 0 0 0 0 0 0 0 0 0 0 0 0 0 0 0 0 46 106 308 557 426 142 1159 1008 1077 1144 1363 1578 1848 1816 1551 2325 3222 3250 3114 2751 3028 3224 3492 3707 4030 4102 4043 3756 3702 3704 3578 3541 3408 3161 3075 3037 3170 3448 3558 3494 3335 3139 3231 3442 4014 4043 4109 4030 3769 3878 4113
0 0 0 0 0 0 0 0 0 0 0 0 0 0 0 0 0 0 0 0 0 0 0 0 0 0 0 0 0 0 0 0 0 0 0 2 6 583 588 553 70 0 866 832 929 1156 1409 1578 2270 2422 2619 2536 2948 2729 2880 3259 3388 3551 3807 4007 4146 4181 3844 3773 3668 3735 3638 3571 3322 3283 3146 3232 3464 3808 3496 3128 3283 2679 3140 3707 4359 4353 4113 3944 3986 4202
0 0 0 0 0 0 0 0 0 0 0 0 0 0 0 0 0 0 0 0 0 0 0 0 0 0 0 0 0 0 0 0 0 0 0 0 3 678 503 399 308 185 986 941 1257 1272 1267 1445 2114 2259 2432 2868 3052 2806 3051 3573 3498 3710 4013 4142 4311 4290 4286 4028 3744 3724 3892 3671 3490 3338 3266 3308 3419 3357 3179 3218 3229 2874 2800 3129 3942 3954 4139 3789 3392 3432
0 0 0 0 0 0 0 0 0 0 0 0 0 0 0 0 0 0 0 0 0 0 0 0 0 0 0 0 0 0 0 0 0 0 0 0 0 269 658 822 582 166 424 719 1167 1717 1567 1474 1861 3191 2980 3030 3210 3437 3267 3674 3479 3647 3858 4082 4176 4221 4288 4107 3722 3936 3822 3652 3309 3286 3348 3378 3444 3338 3317 3303 3410 3178 2792 2539 3155 3514 3655 3897 3484 3181
0 0 0 0 0 0 0 0 0 0 0 0 0 0 0 0 0 0 0 0 0 0 0 0 0 0 0 0 0 0 0 0 0 0 0 0 1 369 517 365 445 467 332 973 1068 1191 1126 1891 2920 3148 3141 3126 3264 3278 2965 2978 3027 3211 3520 4112 4181 4373 4431 4216 3921 4026 3877 3637 3395 3240 3264 3462 3491 3600 3678 3605 3548 3522 3077 2772 2626 2936 2970 3622 3674 3538
0 0 0 0 0 0 0 0 0 0 0 0 0 0 0 0 0 0 0 0 0 0 0 1 0 0 0 0 0 0 0 0 0 0 0 0 0 0 932 447 734 596 338 500 524 1169 2169 2500 2970 3136 3239 3210 3318 3443 3268 2984 3013 2974 3262 4045 4246 4441 4257 4161 3858 3712 3716 3688 3462 3632 3620 3636 3696 3608 3556 3538 3560 3544 3383 3208 2966 3158 3026 3386 3547 3601
0 0 0 0 2 0 0 0 0 0 0 0 0 0 0 0 0 0 0 0 0 0 0 0 2 0 0 0 0 0 0 0 0 0 0 0 0 0 129 928 791 641 434 482 567 470 935 2006 2650 2930 3223 3244 3284 3479 3356 3180 3110 3107 3300 3784 4054 4094 4299 3992 3736 3819 3622 3772 3512 3322 3575 3424 3433 3563 3358 3301 3367 3373 3421 3609 3539 3334 3404 3378 3622 3727
0 0 0 0 1 0 0 0 0 0 0 0 0 0 0 0 0 0 0 0 0 0 0 0 0 0 0 6 46 0 0 0 0 0 0 0 0 0 0 192 775 665 417 140 1058 567 899 1513 2061 2878 3716 3692 3483 3838 3547 3381 3282 3261 3316 3749 4036 4034 4044 3773 3709 3798 3956 3852 3753 3517 3503 3591 3707 3564 3369 3039 3097 3055 2924 3373 3666 3580 3532 3292 3242 3512
100 0 6 0 0 9 0 0 0 0 0 0 0 0 0 0 0 0 0 0 0 0 0 0 0 0 0 170 0 0 0 0 0 0 0 0 0 0 0 0 1185 783 605 201 76 571 941 1660 2969 3532 3943 4011 3966 4230 4058 3657 3648 3416 3414 3555 3857 4026 4066 3844 3760 3700 3949 3928 3708 3575 3536 3578 3714 3428 3484 3261 3462 3150 2959 2816 3129 3574 3419 3293 3040 3310
0 0 0 0 0 2 0 0 0 0 0 0 0 0 0 0 0 0 0 0 0 0 0 0 0 0 0 40 18 0 0 0 0 0 0 0 0 0 0 62 816 1095 952 648 535 1171 1388 1965 3050 3712 4004 4160 4188 4174 4293 4268 3904 3534 3498 3522 3783 3958 4036 3992 4007 3855 3985 3753 3507 3399 3471 3574 3646 3740 3524 3418 3161 3149 2928 2603 3164 3425 3348 3002 2845 3095
0 0 0 0 0 2 4 0 0 0 0 0 0 0 0 0 0 0 0 0 0 60 22 0 0 0 0 164 0 0 0 0 0 0 0 0 0 0 132 2300 1146 1131 1084 1026 1044 1670 1142 1810 3164 4085 4339 4314 4180 3937 4464 4490 4208 3705 3760 3563 3668 3854 3916 4038 3933 3913 4066 3721 3509 3538 3555 3752 3366 3138 3514 3572 2862 2864 2974 2815 2786 3363 3672 3603 3113 3154
0 0 0 0 0 8 0 2 0 0 0 0 0 0 0 0 0 0 0 0 0 9 0 11 62 48 23 0 0 0 0 0 0 0 0 238 799 722 1748 2061 2523 3157 1787 1370 1641 2008 1338 1695 3115 4508 4689 4450 3902 3659 4262 4353 4114 3827 4330 4159 3588 3882 3953 4399 4324 4209 3856 3992 3616 3806 3975 3755 3499 3593 3737 3688 3270 3133 2917 2507 2613 3022 3320 3444 3329 3112
0 0 0 0 0 41 258 81 0 2 0 0 0 0 0 0 0 0 0 0 75 0 1 231 1373 23 16 0 0 0 0 0 0 0 0 471 470 266 751 1812 1707 1234 1826 2180 2213 4358 4938 3594 4536 4997 4938 4490 3980 3793 3754 4107 4032 4233 4637 4367 4085 3600 3595 3737 4328 4331 4341 4462 4229 4076 4091 4044 3806 3585 3546 3484 3620 3388 3018 2852 2885 3018 3445 3979 3813 3106
0 0 0 0 0 0 0 12 12 2 0 0 0 0 0 0 0 0 0 0 0 0 9 416 203 92 13 0 0 0 0 0 0 0 3 88 20 344 728 444 416 1022 1818 1608 3606 4213 4526 6087 5470 5103 5093 4727 4088 3797 3746 3765 4003 4239 4621 4416 4284 3540 3874 4088 4259 4414 4393 4667 4687 4490 4308 4267 4272 4020 3642 3636 3834 3523 3266 3226 3258 3335 3427 3640 3801 3545
0 0 0 0 11 7 0 4 3 4 1 0 0 0 0 0 0 0 0 0 0 59 123 346 591 53 1 0 0 0 0 0 0 0 0 0 192 537 42 263 212 504 865 1848 2535 2926 3901 4250 5705 5361 5293 4946 4228 4298 3644 3845 4237 4322 4408 4350 4260 4199 3998 4228 4377 4416 4300 4687 4928 4840 4685 4568 4495 4322 4122 3909 3998 3806 3559 3505 3618 3539 3492 3340 3566 3804
0 0 0 0 20 24 0 0 0 0 0 0 0 0 0 0 0 0 0 0 0 0 0 0 386 227 1 14 0 0 66 0 0 0 0 94 0 0 0 0 43 55 44 373 3018 2272 3740 4096 4655 5467 5457 5273 4670 4493 4017 3959 4238 4332 3605 3819 3720 4180 4106 4324 4663 4598 4366 4613 5110 5086 4976 4864 4841 4726 4435 4279 4215 4338 3998 3750 3784 3795 3634 3402 3349 3629
0 0 0 0 0 3 0 0 0 0 4 0 0 0 0 0 0 0 0 0 0 0 3 0 119 9 14 0 0 18 3 2 1 25 3 0 0 2 0 0 0 282 276 1001 1939 1919 3882 3730 4587 4960 5257 4778 4515 4766 4284 4503 4254 4304 3537 4040 3824 3684 3594 3800 4573 4711 4699 4773 5289 5287 5201 5122 5112 5031 4818 4548 4442 4535 4473 4112 3829 3829 3863 3646 3491 3625
0 0 0 0 0 0 0 0 0 2 2 0 0 0 0 0 0 0 0 0 0 0 0 0 41 24 135 11 0 0 0 0 0 0 0 26 245 3 0 0 0 0 833 1841 2874 4085 2909 2822 3351 4820 4135 3798 3767 3531 3646 4480 3864 3844 3936 4026 4133 3944 3590 3657 4101 5028 4963 4936 5496 5505 5472 5491 5413 5299 5131 4886 4603 4548 4726 4628 4265 4017 3989 3876 3764 3715
0 0 0 0 0 0 2 0 0 1 0 0 0 0 0 0 0 0 0 0 0 0 0 0 42 338 121 0 0 0 0 42 16 152 27 204 370 121 0 0 0 0 0 0 1358 1811 1245 2154 4111 4132 4276 4732 4152 2987 3518 3655 3575 3970 4052 4379 4566 4236 4143 4039 3882 5167 5068 5035 5442 5688 5690 5801 5790 5592 5315 5220 5064 4852 4840 4905 4779 4458 4245 4199 4204 4100
0 0 0 0 0 0 0 1 1 1 0 0 0 6 0 0 0 0 5 0 0 0 0 0 1 7 9 0 0 18 152 13 0 0 0 0 27 2 96 48 11 15 128 769 124 186 3391 2484 3626 3801 3238 2719 2546 3800 4036 4083 3739 4171 4403 4511 4968 4559 4458 4446 4158 4656 5435 5104 5326 5771 5808 6021 6195 6067 5729 5604 5462 5232 5029 5083 5102 5032 4735 4458 4450 4346
0 0 0 0 0 0 0 0 0 0 0 0 0 0 0 0 0 0 0 1 2 0 8 18 7 1 4 0 0 0 48 0 0 8 4 0 0 0 0 0 0 0 8 67 457 5409 5585 4432 4425 2781 4524 4088 2055 1271 2466 3900 3020 2804 3851 4434 4617 4888 4605 4668 4564 4428 5599 5302 5244 5601 5883 6118 6365 6385 6149 5866 5689 5492 5336 5348 5441 5326 4974 4364 4130 4321
0 0 0 0 0 1 0 0 0 7 1 0 0 1 0 0 0 0 0 0 2 2 0 2 0 2 0 0 0 0 0 0 0 0 0 0 0 0 304 923 324 0 0 130 2283 4433 4838 4449 3407 3312 3447 3429 3025 2090 2309 2049 2985 3220 3368 4168 4374 4878 4913 4720 4770 4506 5072 5416 5240 5368 5813 6097 6426 6416 6290 6146 5827 5570 5386 5460 5681 5639 5306 4688 4248 4261
0 0 0 0 0 0 0 0 1 3 7 0 0 0 0 0 0 0 0 0 0 0 3 3 0 0 0 0 0 0 0 0 0 0 2 0 0 282 2642 3104 2703 2993 2929 2583 3704 4110 5538 5791 5504 4932 4884 4560 4300 4280 4989 4047 3179 4435 4415 4196 4275 4652 4994 4819 4684 4629 4836 5416 5321 5244 5712 6172 6548 6411 6234 6223 6132 5780 5603 5541 5494 5487 5424 5005 4475 4133
0 0 0 0 0 0 10 3 2 7 3 8 0 0 3 0 0 0 0 0 0 0 0 0 0 0 0 621 126 0 0 0 0 700 1110 1231 1247 2936 3241 2868 2890 2449 2982 3960 3692 3458 3313 4410 4357 3493 3402 3491 3219 4680 5318 5435 5221 4904 5617 5042 4564 4424 4511 4688 4637 4646 4609 5192 5428 5334 5453 6058 6453 6462 6226 6273 6190 6050 5838 5640 5604 5640 5766 5129 4718 4242
0 0 0 0 0 0 10 8 6 3 0 0 2 2 6 10 0 3 0 1 991 603 346 72 0 136 1717 1312 732 365 186 102 356 1326 831 904 1188 2923 3168 3162 3165 3407 3412 3329 2686 2395 2831 3779 4787 5300 5302 5201 6358 5595 5041 5069 4683 4545 5016 5497 4746 4151 4088 4294 4598 4803 4711 4961 5383 5311 5538 5822 6265 6424 6244 6314 6367 6000 5977 5842 5528 5622 5553 5310 4866 4696
2 0 0 0 0 3 0 9 7 3 5 1 1 2 2 11 8 22 32 818 480 533 605 727 1090 963 1156 1174 739 717 743 861 666 772 954 1072 1507 2116 2597 3051 2793 2743 2636 2646 3329 3645 3660 4333 4994 4486 4665 4493 4909 5534 5516 4750 4337 4414 4853 5745 4782 4330 4122 4507 4941 5140 4975 4918 4897 5371 5671 5727 6183 6145 5982 6155 6217 6044 5716 5478 5370 5296 5331 5100 4887 4982
3 3 0 0 0 3 9 5 0 0 11 0 0 8 11 7 12 36 788 429 244 343 477 614 897 702 586 756 671 929 866 624 540 895 1209 1126 1159 1539 2074 2088 2664 2776 2355 2309 2655 3882 3306 4501 4368 4395 4088 4543 4840 4527 3967 4846 5080 4832 5189 5557 5226 5209 4756 5320 5610 5589 5428 5370 5129 5435 5561 5451 5833 5930 5655 5808 6110 6190 5958 5706 5541 5342 5392 5018 5291 5411
3 1 0 0 0 0 10 4 0 0 11 0 25 37 19 149 166 136 220 153 58 294 219 503 612 449 465 638 317 228 420 564 786 922 919 1349 1255 1605 1767 2051 2886 2684 2928 3055 3231 3223 2982 3918 3898 4199 4088 4170 5125 4707 3629 3674 4532 4384 5005 5174 5080 5126 5228 5758 5750 5818 5748 5742 5473 5396 5528 5751 5831 5598 5274 5590 6011 6212 6108 5899 5639 5480 5469 5478 5505 5703
3 1 0 1 0 0 0 3 0 20 40 58 80 89 0 19 73 100 0 11 20 164 203 227 426 453 378 423 197 434 151 512 454 574 732 1214 1158 1458 1498 2019 2922 2860 2620 2614 2811 2689 2735 3908 3882 3947 3857 3476 4547 5269 4612 4367 4535 4409 4470 4386 4759 4695 4835 5895 6265 6306 5817 5645 5676 5610 5570 5728 5640 5756 5460 5718 6009 6093 6069 6010 5682 5741 5849 5789 5734 5745
7 20 196 147 0 0 0 1 138 5 15 12 4 0 1 6 9 0 0 0 33 44 56 76 216 219 115 414 389 523 663 420 641 582 763 885 1325 1616 1899 2215 2194 2260 2237 2432 2577 2616 2584 2947 3244 3571 3600 3658 4167 4726 5378 4884 4385 4455 5615 5688 5862 4822 5549 5430 5570 6134 5922 5469 5653 5780 5484 5685 5635 5832 5739 5928 6070 6027 6002 6005 5806 5938 6040 5953 5773 5555
13 0 2 24 39 1 0 2 38 19 41 7 0 0 0 0 0 1 3 0 0 0 0 0 32 108 179 354 437 689 540 455 447 688 674 875 1151 1464 1682 1901 1951 2171 2208 2247 2874 2512 2412 2714 3044 3086 3461 3549 3612 4033 4316 4718 4792 5372 4874 4921 5129 5232 5330 5395 5401 5425 5636 5452 5453 5482 5244 5466 5069 5933 5817 5829 5714 5777 5832 5660 5684 5695 5981 5779 5430 5365
2 0 0 0 0 0 0 22 38 34 9 0 0 0 0 0 0 0 0 0 0 0 0 0 0 0 42 352 374 347 400 375 636 736 922 1097 1064 1223 1535 1719 1931 2060 2103 2358 2657 2630 2830 3203 2518 3042 3245 3123 3174 3344 3491 3578 3945 4183 4258 3943 4265 4797 4936 4944 5538 6010 5945 6028 5744 5473 5238 4935 4352 4707 4940 5339 4640 5073 5402 5255 5266 5224 5429 5205 4803 4776
0 0 0 0 0 0 0 5 16 0 0 0 0 0 0 0 0 0 0 0 0 0 0 0 0 0 0 18 250 320 315 523 780 695 710 799 944 1288 1516 1508 1898 2022 2208 2295 2390 2352 2700 2836 2800 2601 2639 2714 2806 2892 3073 3242 3407 3740 4246 3853 4341 4389 4903 5280 5292 5365 5523 5526 5356 5298 5318 5261 4770 4813 4037 4517 4154 4066 4394 4549 4243 4703 5406 4788 4724 4601
24 2 0 2 2 0 0 0 0 0 0 0 0 0 0 0 0 0 0 0 0 0 0 0 0 0 0 0 7 320 335 364 573 710 696 1000 1074 1390 1585 1739 1811 1966 2295 2402 2463 2421 2575 2838 2643 2291 2258 2389 2295 2488 2624 2989 3176 3366 3470 3833 5248 5374 5007 5556 5474 5716 5459 5103 5417 5608 5636 5289 5459 4803 4474 3816 3667 3546 3713 4287 4542 3671 4086 4197 4188 4400
0 0 0 2 0 0 0 2 2 0 0 0 0 0 0 0 0 0 0 0 0 0 0 0 0 0 0 0 0 43 285 308 385 560 647 950 1376 1651 1924 2079 1919 1624 1915 2038 2070 2221 2229 2179 2319 2358 2070 2126 2253 2357 2498 2570 2653 2936 3316 3550 4183 4870 5142 5264 5344 5328 5432 5810 5894 5840 6016 5685 5484 5604 4492 3769 3730 3706 3948 4221 4053 3809 3795 3966 3850 3956
0 0 0 4 1 0 0 0 0 0 0 0 0 0 0 0 0 0 0 0 0 0 0 0 0 0 0 0 0 10 272 292 422 520 708 956 1257 1520 1538 1802 1976 2137 2024 1758 2034 2172 2139 1923 1935 1624 1937 2128 2177 2149 2227 2352 2515 2768 2947 3120 3319 3654 3873 4101 4399 4397 4338 4536 4521 4526 4954 4799 4723 5278 4856 3710 3562 3680 3876 3887 3987 3871 3705 3634 3560 3576
Wind_Speed
nan nan nan nan nan nan nan nan nan nan nan nan nan nan nan nan nan nan nan nan nan nan nan nan nan nan nan nan nan nan nan nan nan 27 29 21 14 20 18 18 15 12 11 14 14 13 10 10 8 8 7 7 6 10 9 10 9 8 9 8 9 9 8 10 9 9 8 7 7 6 3 3 2 5 6 7 8 6 7 5 2 3 1 2 4 4
nan nan nan nan nan nan nan nan nan nan nan nan nan nan nan nan nan nan nan nan nan nan nan nan nan nan nan nan nan nan nan nan nan nan 39 29 21 19 22 19 18 15 9 14 15 11 11 8 9 7 8 6 6 10 9 9 8 8 8 8 9 11 11 11 9 11 9 9 8 6 4 3 3 5 6 7 8 6 5 4 4 2 1 2 3 4
nan nan nan nan nan nan nan nan nan nan nan nan nan nan nan nan nan nan nan nan nan nan nan nan nan nan nan nan nan nan nan nan nan nan nan 40 26 19 22 21 19 18 11 12 15 12 10 11 10 8 8 7 5 8 8 10 10 8 10 10 10 12 12 13 11 12 10 10 8 5 6 5 6 5 5 6 6 8 6 4 3 2 1 2 3 4
nan nan nan nan nan nan nan nan nan nan nan nan nan nan nan nan nan nan nan nan nan nan nan nan nan nan nan nan nan nan nan nan nan nan nan 43 29 22 20 20 19 20 16 14 15 14 13 12 12 10 9 8 7 10 10 9 9 9 12 11 11 13 14 15 13 12 11 8 9 6 7 6 8 6 6 7 7 7 7 4 3 2 1 2 3 6
nan nan nan nan nan nan nan nan nan nan nan nan nan nan nan nan nan nan nan nan nan nan nan nan nan nan nan nan nan nan nan nan nan nan nan 31 30 26 19 19 17 18 20 17 17 15 13 13 13 12 11 7 7 7 9 8 8 9 10 12 12 15 14 16 14 11 10 9 8 8 9 9 10 10 8 8 8 6 6 4 3 1 2 2 2 4
nan nan nan nan nan nan nan nan nan nan nan nan nan nan nan nan nan nan nan nan nan nan nan nan nan nan nan nan nan nan nan nan nan nan nan nan 36 26 21 20 18 16 19 20 17 14 13 15 15 16 12 4 6 8 9 8 9 10 13 14 14 16 15 15 14 10 9 8 9 9 9 9 9 10 8 5 5 4 4 3 2 3 2 2 3 3
nan nan nan nan nan nan nan nan nan nan nan nan nan nan nan nan nan nan nan nan nan nan nan nan nan nan nan nan nan nan nan nan nan nan nan 37 40 25 19 20 21 19 21 19 16 13 12 14 17 18 11 3 2 6 10 10 11 11 13 14 13 15 15 14 13 10 10 9 10 10 9 10 9 8 9 7 6 6 6 5 5 6 4 2 4 5
nan nan nan nan nan nan nan nan nan nan nan nan nan nan nan nan nan nan nan nan nan nan nan nan nan nan nan nan nan nan nan nan nan nan nan nan 41 27 21 21 19 20 21 20 17 14 12 12 15 17 12 4 2 6 9 10 10 11 12 13 13 15 14 13 12 9 10 11 11 11 10 10 9 7 9 7 7 8 8 6 5 8 5 3 3 4
nan nan nan nan nan nan nan nan nan nan nan nan nan nan nan nan nan nan nan nan nan nan nan nan nan nan nan nan nan nan nan nan nan nan nan 42 48 34 27 24 21 22 22 22 16 12 11 10 11 16 13 6 5 4 7 9 11 13 12 13 13 13 13 12 11 10 11 13 13 11 10 10 9 8 9 10 9 8 8 8 6 7 7 5 4 4
nan nan nan nan nan nan nan nan nan nan nan nan nan nan nan nan nan nan nan nan nan nan nan nan nan nan nan nan nan nan nan nan nan nan nan nan 50 34 24 20 20 21 21 22 18 13 10 10 10 13 16 10 6 5 7 9 12 13 13 13 12 12 12 11 12 11 12 13 13 11 10 8 9 9 9 9 9 7 8 8 7 5 7 7 6 5
nan nan nan nan nan nan nan nan nan nan nan nan nan nan nan nan nan nan nan nan nan nan nan nan nan nan nan nan nan nan nan nan nan nan nan nan 40 34 23 18 14 18 21 22 21 16 12 10 7 9 15 12 5 6 5 6 10 12 13 13 12 11 11 11 12 12 13 14 13 11 9 7 7 7 8 8 8 9 8 6 7 7 7 8 7 6
nan nan nan nan nan nan nan nan nan nan nan nan nan nan nan nan nan nan nan nan nan nan nan nan nan nan nan nan nan nan nan nan nan nan nan nan nan nan 31 23 18 20 22 22 21 18 15 12 9 8 12 13 5 2 3 5 9 11 12 13 13 12 11 11 12 13 13 14 12 11 9 7 7 8 9 8 8 9 7 7 7 9 8 8 9 7
nan nan nan nan nan nan nan nan nan nan nan nan nan nan nan nan nan nan nan nan nan nan nan nan nan nan nan nan nan nan nan nan nan nan nan nan nan 28 nan 30 27 24 21 22 23 21 14 9 9 6 8 9 6 3 6 6 9 11 12 14 14 12 12 12 12 14 14 13 13 11 10 8 9 9 9 9 9 10 9 9 8 9 9 9 9 9
nan nan nan nan nan nan nan nan nan nan nan nan nan nan nan nan nan nan nan nan nan nan nan nan nan nan nan nan nan nan nan nan nan nan nan nan nan 32 26 25 31 28 23 21 24 23 15 8 8 7 6 7 5 4 6 6 7 10 11 13 13 13 13 13 12 14 14 14 14 13 12 10 10 10 11 10 9 10 10 10 9 9 10 10 9 9
nan nan nan nan nan nan nan nan nan nan nan nan nan nan nan nan nan nan nan nan nan nan nan nan nan nan nan nan nan nan nan nan nan nan nan nan nan 34 19 21 nan 33 25 20 22 23 19 12 7 5 5 7 5 5 6 6 8 11 12 12 12 13 12 13 13 14 14 15 15 14 12 11 11 11 12 11 11 10 10 11 10 9 9 10 10 9
nan nan nan nan nan nan nan nan nan nan nan nan nan nan nan nan nan nan nan nan nan nan nan nan nan nan nan nan nan nan nan nan nan nan nan nan 38 37 24 25 27 34 31 22 20 20 18 16 11 4 5 6 5 4 5 7 9 11 13 13 12 13 13 13 13 13 14 15 15 15 13 12 11 11 12 12 12 11 11 11 10 10 9 10 11 11
nan nan nan nan nan nan nan nan nan nan nan nan nan nan nan nan nan nan nan nan nan nan nan nan nan nan nan nan nan nan nan nan nan nan nan nan nan 44 32 25 nan nan 34 22 19 20 16 14 14 7 4 7 8 6 5 7 9 12 15 15 14 14 14 13 13 14 15 16 16 15 14 13 12 12 11 11 12 12 12 12 12 12 11 11 12 13
nan nan nan nan nan nan nan nan nan nan nan nan nan nan nan nan nan nan nan nan nan nan nan nan nan nan nan nan nan nan nan nan nan nan nan nan nan 42 35 23 20 25 32 26 20 23 19 14 13 9 8 11 12 12 8 9 11 14 15 16 16 16 15 14 15 14 15 16 16 15 15 14 14 13 12 11 11 12 13 13 13 13 13 12 12 13
nan nan nan nan nan nan nan nan nan nan nan nan nan nan nan nan nan nan nan nan nan nan nan nan nan nan nan nan nan nan nan nan nan nan nan nan nan 37 35 24 17 18 28 28 20 22 21 19 17 14 13 14 14 11 10 12 14 16 16 15 16 16 17 17 15 14 14 16 15 15 16 16 15 14 13 12 11 11 11 13 14 14 14 15 15 14
nan nan nan nan nan nan nan nan nan nan nan nan nan nan nan nan nan nan nan nan nan nan nan nan nan nan nan nan nan nan nan nan nan nan nan nan nan 33 32 27 17 16 23 28 19 18 20 20 19 16 13 14 14 13 11 13 14 15 15 16 14 15 17 17 16 15 15 16 16 16 16 15 15 15 14 13 12 12 12 12 13 14 14 15 16 16
nan nan nan nan nan nan nan nan nan nan nan nan nan nan nan nan nan nan nan nan nan nan nan nan nan nan nan nan nan nan nan nan nan nan nan nan nan nan 33 28 20 15 20 25 21 19 21 21 19 14 11 11 13 13 13 12 14 15 16 16 15 16 16 16 16 16 16 16 15 17 17 16 15 14 13 12 13 13 13 13 13 14 14 16 16 17
nan nan nan nan nan nan nan nan nan nan nan nan nan nan nan nan nan nan nan nan nan nan nan nan nan nan nan nan nan nan nan nan nan nan nan nan nan nan 29 32 25 17 17 22 26 20 19 21 19 15 12 11 13 15 15 14 14 16 16 15 16 15 13 14 14 14 16 16 15 16 16 16 15 14 13 14 14 15 15 16 16 16 17 17 18 19
nan nan nan nan nan nan nan nan nan nan nan nan nan nan nan nan nan nan nan nan nan nan nan nan nan nan nan nan nan nan nan nan nan nan nan nan nan nan nan 31 29 18 16 17 24 21 20 23 21 19 16 12 12 14 15 14 14 15 16 16 16 15 13 13 13 13 15 14 14 15 15 15 15 15 15 16 16 17 17 17 17 18 18 17 18 19
nan nan nan nan nan nan nan nan nan nan nan nan nan nan nan nan nan nan nan nan nan nan nan nan nan nan nan 28 nan nan nan nan nan nan nan nan nan nan nan nan 34 24 17 14 nan 26 23 23 25 22 18 15 12 13 15 14 12 13 14 15 16 15 15 14 13 13 14 13 13 15 15 15 14 17 18 18 18 19 18 18 18 18 17 17 16 17
nan nan nan nan nan nan nan nan nan nan nan nan nan nan nan nan nan nan nan nan nan nan nan nan nan nan nan nan nan nan nan nan nan nan nan nan nan nan nan nan 36 32 22 16 21 29 23 22 24 21 19 18 14 12 14 15 13 14 14 15 15 15 15 15 14 14 14 14 14 14 14 15 16 17 18 19 18 19 20 20 19 18 17 16 16 16
nan nan nan nan nan nan nan nan nan nan nan nan nan nan nan nan nan nan nan nan nan nan nan nan nan nan nan 35 nan nan nan nan nan nan nan nan nan nan 22 31 34 35 27 21 25 32 25 19 21 19 19 19 16 11 13 15 15 15 14 14 15 16 16 15 14 15 16 16 15 14 15 15 16 17 19 19 19 20 20 20 18 17 17 16 16 16
nan nan nan nan nan nan nan nan nan nan nan nan nan nan nan nan nan nan nan nan nan nan nan nan nan nan nan nan nan nan nan nan nan nan nan 28 42 43 41 45 41 37 34 27 26 30 24 19 16 19 22 22 18 11 12 14 14 14 15 15 14 15 15 16 15 15 16 17 16 16 16 17 17 17 18 19 18 18 20 20 19 18 17 17 17 16
nan nan nan nan nan nan 43 nan nan nan nan nan nan nan nan nan nan nan nan nan nan nan nan 21 21 nan nan nan nan nan nan nan nan nan nan 30 36 41 43 41 43 41 40 36 32 38 32 21 21 24 26 23 19 14 12 14 14 13 14 14 13 13 14 15 15 15 16 17 16 15 17 17 17 17 17 18 19 19 19 19 18 16 16 18 17 16
nan nan nan nan nan nan nan nan nan nan nan nan nan nan nan nan nan nan nan nan nan nan nan 25 29 nan nan nan nan nan nan nan nan nan nan nan nan 38 37 40 42 41 40 37 36 38 37 32 27 28 29 26 22 18 15 16 15 15 15 15 14 11 12 14 15 15 16 17 16 16 16 17 17 16 17 19 20 19 19 18 17 16 16 17 17 15
nan nan nan nan nan nan nan nan nan nan nan nan nan nan nan nan nan nan nan nan nan nan 27 25 28 nan nan nan nan nan nan nan nan nan nan nan 41 38 nan 36 39 41 40 38 35 36 37 36 33 32 31 28 25 23 19 19 19 18 16 16 15 13 12 14 15 15 15 15 15 16 17 17 16 16 16 18 19 19 19 18 18 17 16 16 16 17
nan nan nan nan nan nan nan nan nan nan nan nan nan nan nan nan nan nan nan nan nan nan nan nan 25 26 nan nan nan nan nan nan nan nan nan nan nan nan nan nan nan nan nan 35 36 35 36 36 35 34 32 29 27 26 24 23 22 22 18 17 15 15 14 15 16 17 15 14 15 16 16 17 17 17 16 17 18 19 19 19 18 18 17 16 16 17
nan nan nan nan nan nan nan nan nan nan nan nan nan nan nan nan nan nan nan nan nan nan nan nan 30 nan nan nan nan nan nan nan nan nan nan nan nan nan nan nan nan 38 35 35 36 36 36 35 33 32 31 30 28 28 28 27 26 25 21 22 19 18 17 15 18 19 18 17 17 16 16 16 17 17 16 17 18 18 19 19 18 17 17 17 17 17
nan nan nan nan nan nan nan nan nan nan nan nan nan nan nan nan nan nan nan nan nan nan nan nan nan nan 34 nan nan nan nan nan nan nan nan nan 38 nan nan nan nan nan 42 37 39 41 37 33 32 32 32 31 31 30 29 29 28 27 25 25 24 22 20 19 20 23 23 22 20 18 16 16 17 17 16 16 17 19 20 20 18 17 17 17 17 17
nan nan nan nan nan nan nan nan nan nan nan nan nan nan nan nan nan nan nan nan nan nan nan nan nan 35 35 nan nan nan nan nan nan 34 nan 34 31 30 nan nan nan nan nan nan 45 38 35 37 37 34 33 34 32 30 30 30 28 29 28 27 28 26 23 23 22 25 26 25 23 21 19 17 16 16 16 16 18 19 19 19 18 17 16 17 18 17
nan nan nan nan nan nan nan nan nan nan nan nan nan nan nan nan nan nan nan nan nan nan nan nan nan nan nan nan nan nan 50 nan nan nan nan nan nan nan nan nan nan nan 37 43 43 40 45 48 43 38 35 33 31 32 32 31 30 31 30 29 29 29 27 26 25 25 26 26 26 24 21 18 16 16 16 16 18 19 19 19 18 18 18 17 17 16
nan nan nan nan nan nan nan nan nan nan nan nan nan nan nan nan nan nan nan nan nan nan nan nan nan nan nan nan nan nan nan nan nan nan nan nan nan nan nan nan nan nan nan nan 41 46 45 47 43 39 37 37 36 32 33 32 30 28 29 30 28 30 29 29 28 26 26 26 28 27 24 20 17 17 17 17 18 18 17 18 19 19 19 17 16 16
nan nan nan nan nan nan nan nan nan nan nan nan nan nan nan nan nan nan nan nan nan nan nan nan nan nan nan nan nan nan nan nan nan nan nan nan nan nan 25 31 27 nan nan 36 46 45 42 40 39 37 35 34 34 32 31 32 33 31 32 31 29 29 30 30 28 27 26 26 27 27 27 23 19 17 17 17 16 15 15 17 19 19 21 18 16 16
nan nan nan nan nan nan nan nan nan nan nan nan nan nan nan nan nan nan nan nan nan nan nan nan nan nan nan nan nan nan nan nan nan nan nan nan nan 37 46 46 49 49 48 47 44 43 40 40 37 37 35 34 33 32 32 32 34 35 35 34 32 30 30 30 28 28 27 27 28 27 27 24 19 16 16 15 13 13 14 17 19 19 21 19 17 15
nan nan nan nan nan nan nan nan nan nan nan nan nan nan nan nan nan nan nan nan nan nan nan nan nan nan nan 51 44 nan nan nan nan 41 45 52 50 51 48 46 46 44 44 44 42 38 36 35 33 29 28 29 28 29 29 30 31 32 35 36 36 33 30 29 29 29 28 28 29 29 28 24 16 13 14 12 11 13 15 17 18 18 19 18 17 15
nan nan nan nan nan nan nan nan nan nan nan nan nan nan nan nan nan nan nan nan 72 69 67 nan nan 63 65 57 52 55 47 39 45 51 47 54 50 52 49 47 46 44 41 40 39 33 31 30 28 29 28 29 31 29 27 27 28 29 31 33 35 33 30 30 31 32 31 31 31 30 29 24 16 12 12 12 10 11 12 15 16 16 18 18 18 17
nan nan nan nan nan nan nan nan nan nan nan nan nan nan nan nan nan nan nan 69 69 72 72 70 73 69 65 59 55 50 51 53 52 48 51 49 51 48 47 47 47 44 41 40 38 37 34 32 32 28 26 24 23 22 24 25 24 25 26 27 28 27 27 31 35 35 34 34 33 32 29 25 19 15 13 12 12 12 11 13 14 15 17 17 18 18
nan nan nan nan nan nan nan nan nan nan nan nan nan nan nan nan nan nan 71 65 66 73 78 72 71 68 64 63 61 60 54 54 53 49 48 47 45 45 44 46 46 45 40 41 38 42 37 34 33 29 26 22 18 16 18 20 21 22 22 21 21 23 25 29 33 36 36 36 34 32 29 25 22 20 17 16 16 15 14 14 15 16 18 18 18 19
nan nan nan nan nan nan nan nan nan nan nan nan nan nan nan 56 54 61 73 74 nan 83 77 72 69 68 66 62 63 61 59 58 57 56 53 49 48 46 45 44 45 44 43 40 44 45 41 36 32 32 30 30 32 26 21 20 21 21 20 19 20 22 22 25 30 35 36 37 34 31 30 27 24 24 22 21 20 19 17 18 17 18 20 21 21 22
nan nan nan nan nan nan nan nan nan nan nan nan nan nan nan nan nan 64 nan nan nan 76 72 65 66 66 67 63 61 63 62 60 58 56 53 50 49 46 44 44 46 46 46 47 46 45 41 39 35 33 33 30 30 30 27 24 25 25 24 23 23 22 22 24 28 32 35 36 34 32 31 29 27 27 26 25 26 24 23 22 21 22 23 24 25 26
nan nan 62 55 nan nan nan nan 69 nan nan nan nan nan nan nan nan nan nan nan nan nan nan nan 64 64 65 65 61 61 61 62 58 55 54 52 49 48 49 47 45 45 45 46 45 44 39 39 38 33 34 33 32 31 30 29 29 28 33 33 28 25 22 23 26 30 33 35 34 33 32 31 30 30 30 30 30 28 27 26 26 26 27 28 29 29
nan nan nan nan nan nan nan nan nan nan nan nan nan nan nan nan nan nan nan nan nan nan nan nan nan 63 63 64 64 63 63 62 59 56 55 52 50 48 49 47 45 44 44 46 49 47 42 38 38 38 35 34 33 31 32 33 32 33 35 30 31 29 29 29 29 30 31 32 33 33 32 31 31 34 34 34 33 31 30 29 29 29 31 32 32 31
nan nan nan nan nan nan nan nan nan nan nan nan nan nan nan nan nan nan nan nan nan nan nan nan nan nan nan 59 63 62 61 61 60 58 54 51 49 49 47 45 43 44 44 44 45 43 42 39 39 41 41 40 40 39 37 33 33 34 32 32 29 27 29 27 28 28 29 31 32 33 33 34 34 35 35 36 35 35 34 32 32 32 34 35 32 32
nan nan nan nan nan nan nan nan nan nan nan nan nan nan nan nan nan nan nan nan nan nan nan nan nan nan nan nan 61 59 60 60 60 58 54 51 50 48 46 44 44 43 42 42 42 41 41 39 38 40 39 39 37 37 35 35 36 36 35 29 26 29 29 28 29 29 28 30 31 33 34 36 35 37 38 38 38 37 37 36 35 35 36 34 33 34
nan nan nan nan nan nan nan nan nan nan nan nan nan nan nan nan nan nan nan nan nan nan nan nan nan nan nan nan nan 59 60 61 58 58 54 51 49 49 48 44 42 41 40 39 41 42 43 42 40 40 40 40 39 38 37 37 36 35 35 35 35 34 31 32 30 29 30 31 32 35 37 39 40 40 40 47 49 49 46 41 43 47 46 43 41 48
nan nan nan nan nan nan nan nan nan nan nan nan nan nan nan nan nan nan nan nan nan nan nan nan nan nan nan nan nan nan 58 58 57 55 53 50 49 49 48 46 42 40 38 37 37 39 41 42 43 44 43 42 40 40 41 40 36 34 37 37 36 36 37 38 37 38 37 36 37 37 39 42 44 45 46 46 47 49 49 52 54 49 48 47 53 63
nan nan nan nan nan nan nan nan nan nan nan nan nan nan nan nan nan nan nan nan nan nan nan nan nan nan nan nan nan nan 60 59 59 56 53 53 50 49 47 45 43 42 40 39 38 38 39 41 44 43 43 43 43 44 43 42 41 39 40 39 40 39 38 37 38 38 38 38 37 38 40 42 44 44 44 45 46 49 50 50 53 57 57 56 56 62
Wind_Direction
nan nan nan nan nan nan nan nan nan nan nan nan nan nan nan nan nan nan nan nan nan nan nan nan nan nan nan nan nan nan nan nan nan 296 279 284 287 294 297 302 312 326 328 322 317 315 308 289 255 237 231 232 235 224 226 235 241 220 229 220 227 231 227 229 221 216 210 210 210 191 179 162 149 143 139 129 135 131 139 156 194 289 9 13 25 25
nan nan nan nan nan nan nan nan nan nan nan nan nan nan nan nan nan nan nan nan nan nan nan nan nan nan nan nan nan nan nan nan nan nan 295 306 303 297 304 308 316 320 327 323 306 310 310 283 278 245 228 238 247 227 232 232 232 220 227 227 218 231 230 233 224 224 211 211 207 196 184 168 173 162 152 143 144 137 145 181 226 258 307 20 13 27
nan nan nan nan nan nan nan nan nan nan nan nan nan nan nan nan nan nan nan nan nan nan nan nan nan nan nan nan nan nan nan nan nan nan nan 299 299 304 306 313 314 307 314 304 297 317 326 314 285 242 234 227 247 244 245 227 226 216 216 224 211 228 234 234 229 225 221 212 215 200 185 176 184 180 158 148 155 151 160 207 224 247 325 359 15 17
nan nan nan nan nan nan nan nan nan nan nan nan nan nan nan nan nan nan nan nan nan nan nan nan nan nan nan nan nan nan nan nan nan nan nan 296 302 305 309 305 302 304 296 302 304 337 348 311 272 248 237 227 235 230 238 240 236 218 209 225 221 226 231 237 230 228 224 214 214 206 189 178 174 197 183 170 176 162 157 179 217 219 308 0 13 15
nan nan nan nan nan nan nan nan nan nan nan nan nan nan nan nan nan nan nan nan nan nan nan nan nan nan nan nan nan nan nan nan nan nan nan 291 293 297 302 301 300 303 300 307 327 346 344 311 285 259 241 230 239 239 247 250 245 218 226 229 231 227 231 236 239 236 227 218 210 211 188 191 175 195 202 186 169 169 162 165 216 214 279 332 22 14
nan nan nan nan nan nan nan nan nan nan nan nan nan nan nan nan nan nan nan nan nan nan nan nan nan nan nan nan nan nan nan nan nan nan nan nan 288 293 306 303 304 305 306 316 331 336 330 312 271 253 251 225 234 238 244 246 246 233 226 231 230 226 229 231 246 245 231 216 217 216 201 201 192 183 202 185 164 170 172 131 222 248 300 330 24 12
nan nan nan nan nan nan nan nan nan nan nan nan nan nan nan nan nan nan nan nan nan nan nan nan nan nan nan nan nan nan nan nan nan nan nan 286 290 289 299 299 300 304 302 313 318 303 315 305 285 270 259 206 209 246 249 243 244 239 236 239 239 230 231 231 239 248 228 221 216 219 208 201 199 184 180 196 179 179 201 185 208 258 282 318 3 18
nan nan nan nan nan nan nan nan nan nan nan nan nan nan nan nan nan nan nan nan nan nan nan nan nan nan nan nan nan nan nan nan nan nan nan nan 292 287 290 294 291 296 306 309 306 296 283 282 287 276 270 252 172 251 260 258 255 253 246 252 249 234 237 233 236 244 232 223 222 222 215 204 202 185 184 201 202 188 204 222 200 257 277 305 339 16
nan nan nan nan nan nan nan nan nan nan nan nan nan nan nan nan nan nan nan nan nan nan nan nan nan nan nan nan nan nan nan nan nan nan nan 281 290 290 291 291 298 303 306 308 306 303 279 265 256 264 262 226 180 232 261 265 258 254 252 252 251 247 244 241 249 245 237 229 229 226 219 214 204 201 193 205 209 197 202 229 226 240 282 304 327 352
nan nan nan nan nan nan nan nan nan nan nan nan nan nan nan nan nan nan nan nan nan nan nan nan nan nan nan nan nan nan nan nan nan nan nan nan 282 290 286 285 299 298 298 304 311 311 289 259 244 236 244 238 158 186 233 259 263 264 256 260 265 260 251 247 258 252 246 241 235 231 227 224 220 214 211 212 222 216 215 222 248 242 269 296 307 326
nan nan nan nan nan nan nan nan nan nan nan nan nan nan nan nan nan nan nan nan nan nan nan nan nan nan nan nan nan nan nan nan nan nan nan nan 280 293 290 288 280 282 292 295 300 304 289 278 277 285 292 274 186 190 231 262 273 278 275 275 281 274 258 259 262 263 258 249 246 238 240 236 234 233 231 229 234 235 233 232 246 262 259 278 292 307
nan nan nan nan nan nan nan nan nan nan nan nan nan nan nan nan nan nan nan nan nan nan nan nan nan nan nan nan nan nan nan nan nan nan nan nan nan nan 290 296 293 284 283 287 289 298 301 299 321 326 292 290 303 288 298 297 283 284 280 282 289 279 272 265 264 268 263 256 256 252 255 254 242 247 238 246 246 259 256 254 253 259 265 265 279 290
nan nan nan nan nan nan nan nan nan nan nan nan nan nan nan nan nan nan nan nan nan nan nan nan nan nan nan nan nan nan nan nan nan nan nan nan nan 283 nan 297 290 282 287 287 285 288 292 314 335 330 292 277 279 302 318 321 304 293 286 293 296 289 281 272 269 273 273 267 263 261 263 257 248 251 250 248 252 257 264 260 259 263 272 272 277 290
nan nan nan nan nan nan nan nan nan nan nan nan nan nan nan nan nan nan nan nan nan nan nan nan nan nan nan nan nan nan nan nan nan nan nan nan nan 286 282 282 285 285 279 280 285 292 293 291 295 301 268 259 281 313 304 305 284 275 283 291 299 296 288 278 277 278 277 275 269 266 265 261 258 260 262 259 263 265 267 268 268 270 274 279 288 292
nan nan nan nan nan nan nan nan nan nan nan nan nan nan nan nan nan nan nan nan nan nan nan nan nan nan nan nan nan nan nan nan nan nan nan nan nan 290 299 296 nan 286 282 273 275 288 292 288 282 274 253 259 277 321 312 288 273 271 275 283 293 292 289 286 286 278 283 275 276 274 272 273 265 269 269 270 272 274 277 277 279 274 271 277 282 290
nan nan nan nan nan nan nan nan nan nan nan nan nan nan nan nan nan nan nan nan nan nan nan nan nan nan nan nan nan nan nan nan nan nan nan nan 271 281 291 299 294 284 283 277 270 283 292 290 289 247 253 271 276 288 287 288 272 279 281 285 289 287 287 283 284 278 279 276 274 280 286 286 282 269 271 272 276 280 281 283 285 285 281 277 278 281
nan nan nan nan nan nan nan nan nan nan nan nan nan nan nan nan nan nan nan nan nan nan nan nan nan nan nan nan nan nan nan nan nan nan nan nan nan 280 289 297 nan nan 284 285 279 278 283 278 279 292 311 315 315 311 306 293 288 290 281 284 286 281 281 282 283 280 278 278 279 287 291 290 290 292 293 292 296 307 295 290 291 292 294 286 281 284
nan nan nan nan nan nan nan nan nan nan nan nan nan nan nan nan nan nan nan nan nan nan nan nan nan nan nan nan nan nan nan nan nan nan nan nan nan 281 292 300 294 284 283 294 291 290 300 298 303 321 338 336 335 339 320 292 275 271 274 286 290 288 289 286 284 283 280 285 289 294 302 305 310 309 310 302 300 297 292 293 292 294 295 302 297 291
nan nan nan nan nan nan nan nan nan nan nan nan nan nan nan nan nan nan nan nan nan nan nan nan nan nan nan nan nan nan nan nan nan nan nan nan nan 273 291 293 290 276 271 285 293 288 301 309 313 318 338 343 338 322 304 276 273 265 268 278 289 294 294 293 287 287 281 290 285 290 304 315 315 311 312 312 306 301 301 305 300 304 303 304 304 301
nan nan nan nan nan nan nan nan nan nan nan nan nan nan nan nan nan nan nan nan nan nan nan nan nan nan nan nan nan nan nan nan nan nan nan nan nan 264 279 288 285 267 261 278 283 283 294 304 309 323 334 335 332 319 305 298 286 290 282 279 283 285 280 284 289 287 288 295 294 296 303 309 310 310 312 314 311 309 313 310 309 311 312 307 305 306
nan nan nan nan nan nan nan nan nan nan nan nan nan nan nan nan nan nan nan nan nan nan nan nan nan nan nan nan nan nan nan nan nan nan nan nan nan nan 273 282 275 271 265 275 279 289 300 298 300 305 316 319 312 300 298 295 299 292 283 286 292 291 299 304 304 300 294 292 295 298 305 307 306 310 308 310 310 308 307 303 305 301 303 296 302 302
nan nan nan nan nan nan nan nan nan nan nan nan nan nan nan nan nan nan nan nan nan nan nan nan nan nan nan nan nan nan nan nan nan nan nan nan nan nan 261 280 279 270 266 265 275 288 290 279 276 280 279 282 293 303 315 305 298 297 297 293 295 298 302 309 303 292 290 289 291 301 301 303 301 305 301 312 309 311 307 305 303 299 298 303 303 301
nan nan nan nan nan nan nan nan nan nan nan nan nan nan nan nan nan nan nan nan nan nan nan nan nan nan nan nan nan nan nan nan nan nan nan nan nan nan nan 280 282 276 264 267 274 276 269 266 265 266 276 284 299 303 310 306 310 311 309 301 296 304 312 308 302 291 282 288 291 296 295 298 301 303 310 320 313 319 317 309 303 301 303 305 304 304
nan nan nan nan nan nan nan nan nan nan nan nan nan nan nan nan nan nan nan nan nan nan nan nan nan nan nan 234 nan nan nan nan nan nan nan nan nan nan nan nan 283 280 261 254 nan 271 260 262 260 262 278 278 278 283 304 309 306 302 303 306 304 315 316 306 296 293 291 294 297 300 300 304 301 317 320 322 313 318 317 311 306 303 308 310 309 309
nan nan nan nan nan nan nan nan nan nan nan nan nan nan nan nan nan nan nan nan nan nan nan nan nan nan nan nan nan nan nan nan nan nan nan nan nan nan nan nan 274 279 268 255 252 266 266 265 267 270 287 291 290 293 295 299 300 306 305 306 310 307 306 301 295 298 299 303 309 310 305 309 312 317 321 321 314 320 319 316 313 306 313 316 320 317
nan nan nan nan nan nan nan nan nan nan nan nan nan nan nan nan nan nan nan nan nan nan nan nan nan nan nan 245 nan nan nan nan nan nan nan nan nan nan 240 242 268 278 276 259 247 260 271 262 269 273 282 288 296 295 280 287 299 307 302 310 307 303 304 307 301 301 299 302 308 304 309 309 315 319 321 319 318 321 319 318 316 313 311 318 323 323
nan nan nan nan nan nan nan nan nan nan nan nan nan nan nan nan nan nan nan nan nan nan nan nan nan nan nan nan nan nan nan nan nan nan nan 224 231 228 232 239 238 245 264 259 249 257 265 266 270 274 276 277 292 290 271 282 294 299 291 297 307 301 303 298 298 297 303 307 313 307 312 314 313 309 311 309 310 311 312 318 321 322 318 316 325 333
nan nan nan nan nan nan 198 nan nan nan nan nan nan nan nan nan nan nan nan nan nan nan nan 225 225 nan nan nan nan nan nan nan nan nan nan 228 232 232 235 242 243 243 248 245 242 245 256 259 258 263 268 276 283 278 268 272 279 277 275 287 292 299 303 301 301 301 303 305 310 308 314 310 305 306 302 298 300 304 308 313 314 312 305 307 322 335
nan nan nan nan nan nan nan nan nan nan nan nan nan nan nan nan nan nan nan nan nan nan nan 217 210 nan nan nan nan nan nan nan nan nan nan nan nan 228 229 242 246 245 248 249 240 241 253 261 260 261 265 267 273 274 270 265 267 263 262 271 276 288 291 288 296 302 307 308 311 309 304 298 294 293 291 293 295 301 304 305 302 299 300 303 314 319
nan nan nan nan nan nan nan nan nan nan nan nan nan nan nan nan nan nan nan nan nan nan 211 224 223 nan nan nan nan nan nan nan nan nan nan nan 237 230 nan 236 249 250 252 254 249 249 245 253 257 258 257 261 267 267 271 265 264 269 271 267 273 270 271 278 292 300 307 313 311 300 296 297 292 287 282 283 289 295 298 296 294 296 299 306 311 309
nan nan nan nan nan nan nan nan nan nan nan nan nan nan nan nan nan nan nan nan nan nan nan nan 239 226 nan nan nan nan nan nan nan nan nan nan nan nan nan nan nan nan nan 249 251 248 249 251 252 255 258 259 261 266 268 267 269 273 286 278 285 280 278 281 288 301 308 308 301 297 297 298 297 288 282 278 279 282 290 294 291 292 297 305 310 312
nan nan nan nan nan nan nan nan nan nan nan nan nan nan nan nan nan nan nan nan nan nan nan nan 232 nan nan nan nan nan nan nan nan nan nan nan nan nan nan nan nan 246 255 254 249 246 247 252 254 258 261 264 264 260 263 264 268 272 280 281 286 293 299 295 297 306 306 301 297 300 305 304 302 297 290 278 277 283 288 290 293 295 299 306 312 309
nan nan nan nan nan nan nan nan nan nan nan nan nan nan nan nan nan nan nan nan nan nan nan nan nan nan 219 nan nan nan nan nan nan nan nan nan 233 nan nan nan nan nan 240 246 245 247 249 251 256 257 258 260 259 260 264 265 269 272 273 275 281 283 296 301 297 299 304 305 301 301 300 302 308 308 299 288 282 280 283 291 297 299 299 307 305 301
nan nan nan nan nan nan nan nan nan nan nan nan nan nan nan nan nan nan nan nan nan nan nan nan nan 246 239 nan nan nan nan nan nan 238 nan 236 246 244 nan nan nan nan nan nan 247 256 246 237 253 256 256 253 258 263 261 262 267 267 270 271 275 284 284 288 293 293 302 303 304 301 298 300 307 311 307 293 285 283 288 292 296 295 291 289 293 304
nan nan nan nan nan nan nan nan nan nan nan nan nan nan nan nan nan nan nan nan nan nan nan nan nan nan nan nan nan nan 232 nan nan nan nan nan nan nan nan nan nan nan 233 237 238 239 244 247 251 253 251 256 259 260 266 264 265 264 268 270 271 276 280 282 288 287 292 299 301 301 300 298 297 300 298 293 289 290 294 294 288 287 284 288 296 299
nan nan nan nan nan nan nan nan nan nan nan nan nan nan nan nan nan nan nan nan nan nan nan nan nan nan nan nan nan nan nan nan nan nan nan nan nan nan nan nan nan nan nan nan 246 250 245 246 249 252 250 249 251 253 261 267 270 273 272 273 271 271 276 277 281 287 285 290 296 302 303 298 292 287 288 289 290 296 301 296 289 286 282 281 283 281
nan nan nan nan nan nan nan nan nan nan nan nan nan nan nan nan nan nan nan nan nan nan nan nan nan nan nan nan nan nan nan nan nan nan nan nan nan nan 220 218 214 nan nan 240 247 248 247 246 248 250 251 252 252 252 255 259 269 271 272 276 277 271 272 275 279 285 284 283 288 297 302 303 299 291 285 283 289 298 300 291 283 278 275 282 284 283
nan nan nan nan nan nan nan nan nan nan nan nan nan nan nan nan nan nan nan nan nan nan nan nan nan nan nan nan nan nan nan nan nan nan nan nan nan 229 226 220 220 219 230 240 244 245 245 243 242 245 245 245 250 253 250 247 254 265 269 273 274 273 272 275 279 281 279 278 281 286 295 302 303 298 291 284 288 290 284 280 277 280 281 288 290 293
nan nan nan nan nan nan nan nan nan nan nan nan nan nan nan nan nan nan nan nan nan nan nan nan nan nan nan 222 228 nan nan nan nan 220 208 211 217 225 226 225 225 224 229 235 238 240 238 239 240 236 237 241 244 249 254 254 250 253 265 269 273 273 273 273 275 276 277 273 273 278 287 294 298 302 306 300 284 276 280 282 281 280 279 287 291 293
nan nan nan nan nan nan nan nan nan nan nan nan nan nan nan nan nan nan nan nan 207 212 211 nan nan 223 226 226 226 232 232 235 226 212 204 206 213 220 222 226 229 229 229 233 235 233 234 235 238 236 232 236 236 238 247 253 250 249 253 262 266 268 268 265 265 266 266 267 269 273 280 284 285 289 301 305 294 283 280 276 280 288 290 291 292 291
nan nan nan nan nan nan nan nan nan nan nan nan nan nan nan nan nan nan nan 215 208 214 215 216 222 225 225 221 227 234 227 219 215 209 206 206 209 213 217 223 227 228 229 230 233 234 233 233 235 229 228 225 226 226 229 234 243 243 243 252 257 260 257 252 253 258 260 263 267 271 277 277 275 280 285 284 283 283 284 284 288 289 289 297 294 291
nan nan nan nan nan nan nan nan nan nan nan nan nan nan nan nan nan nan 216 212 213 220 218 221 225 225 225 223 223 225 223 217 211 209 209 207 207 210 213 216 222 226 227 226 230 234 230 232 227 224 222 223 226 233 228 230 233 237 239 246 252 253 249 244 246 250 255 260 264 268 272 271 264 269 271 267 267 272 276 280 286 286 290 293 290 292
nan nan nan nan nan nan nan nan nan nan nan nan nan nan nan 216 217 214 215 211 nan 221 221 224 223 221 221 221 220 221 221 220 213 209 208 207 205 207 211 215 220 223 226 227 232 230 227 229 223 223 222 221 218 221 230 232 236 238 239 242 248 250 247 240 240 244 249 255 260 262 265 263 260 261 263 263 265 266 267 270 276 276 281 286 287 287
nan nan nan nan nan nan nan nan nan nan nan nan nan nan nan nan nan 217 nan nan nan 220 218 222 222 220 219 219 217 219 220 221 216 210 208 209 207 205 208 215 222 221 223 225 229 230 224 230 229 226 229 223 221 216 220 229 238 239 243 245 247 247 245 241 239 242 247 252 256 259 259 257 255 256 258 260 262 263 261 262 265 267 273 278 280 281
nan nan 214 209 nan nan nan nan 206 nan nan nan nan nan nan nan nan nan nan nan nan nan nan nan 218 219 218 218 218 219 220 220 216 212 211 211 210 207 210 215 218 218 221 225 227 230 229 231 231 232 230 229 225 223 218 230 239 241 242 236 235 244 249 246 243 244 245 248 252 253 252 251 250 254 255 257 262 264 263 264 265 265 267 271 275 276
nan nan nan nan nan nan nan nan nan nan nan nan nan nan nan nan nan nan nan nan nan nan nan nan nan 214 215 218 217 219 219 220 218 215 213 212 212 210 210 211 215 217 220 224 228 228 228 228 235 232 234 238 234 231 230 226 231 243 239 239 238 237 240 245 244 244 244 245 247 249 249 252 254 254 256 257 261 263 264 264 266 266 265 268 270 272
nan nan nan nan nan nan nan nan nan nan nan nan nan nan nan nan nan nan nan nan nan nan nan nan nan nan nan 211 220 219 218 219 221 219 215 214 213 214 213 212 215 219 221 223 225 226 228 225 233 236 234 233 231 228 226 228 235 237 238 237 236 242 244 245 248 249 246 247 248 248 248 251 254 255 257 257 260 262 262 262 266 265 266 267 270 274
nan nan nan nan nan nan nan nan nan nan nan nan nan nan nan nan nan nan nan nan nan nan nan nan nan nan nan nan 213 216 218 219 221 222 218 216 215 215 217 217 216 219 221 224 226 226 226 228 234 236 236 236 234 235 235 234 233 232 228 235 245 246 246 248 247 249 250 252 250 250 249 250 259 260 259 260 259 264 267 268 270 272 273 273 275 278
nan nan nan nan nan nan nan nan nan nan nan nan nan nan nan nan nan nan nan nan nan nan nan nan nan nan nan nan nan 211 216 220 219 220 219 218 218 218 218 219 221 221 223 225 226 227 228 228 234 237 238 239 238 239 239 236 233 232 236 232 237 244 248 250 254 252 254 253 250 250 248 250 251 255 258 256 255 254 251 251 259 261 260 256 257 260
nan nan nan nan nan nan nan nan nan nan nan nan nan nan nan nan nan nan nan nan nan nan nan nan nan nan nan nan nan nan 212 219 220 222 221 220 220 221 222 221 222 223 224 225 226 228 230 230 232 236 238 238 239 242 243 242 239 237 237 237 240 245 248 249 248 248 246 246 243 244 245 245 246 245 252 257 257 257 254 249 248 256 265 262 259 260
nan nan nan nan nan nan nan nan nan nan nan nan nan nan nan nan nan nan nan nan nan nan nan nan nan nan nan nan nan nan 213 217 219 221 222 223 223 224 224 223 223 226 227 227 228 230 232 233 235 236 238 238 237 239 241 242 244 241 238 240 239 240 243 245 248 249 249 246 245 244 245 244 242 246 254 257 256 255 257 256 250 246 252 262 265 267